N5RML-1 Weather Reports


Display with metric or nautical units.
time (UTC)temp
F
wind
direction
speed
MPH
gust
MPH
rain 1hr
in
rain 24hr
in
rain mn
in
humidity
%
barometer
mb
20260906221530 94 2 4.0 6.0 0.00 1.47 0.01 57 1011.7
20260906220519 94 335 2.0 4.0 0.00 1.47 0.01 57 1011.8
20260906215527 94 353 3.0 4.0 0.00 1.47 0.01 58 1011.8
20260906214535 94 27 4.0 5.0 0.00 1.47 0.01 59 1011.8
20260906213545 94 347 3.0 5.0 0.00 1.47 0.01 58 1011.8
20260906212532 94 351 2.0 4.0 0.00 1.47 0.01 58 1011.8
20260906211522 94 357 3.0 6.0 0.00 1.47 0.01 59 1011.9
20260906210530 94 351 4.0 6.0 0.00 1.47 0.01 59 1011.9
20260906205520 94 345 4.0 5.0 0.00 1.47 0.01 57 1012.1
20260906204527 94 322 4.0 6.0 0.00 1.47 0.01 57 1012.2
20260906203535 95 349 4.0 7.0 0.00 1.47 0.01 57 1012.4
20260906202524 95 349 2.0 4.0 0.00 1.47 0.01 58 1012.7
20260906201532 94 9 3.0 6.0 0.00 1.47 0.01 56 1012.9
20260906200521 94 341 3.0 5.0 0.00 1.47 0.01 60 1013.1
20260906195550 94 309 2.0 4.0 0.00 1.47 0.01 58 1013.3
20260906194538 93 295 3.0 4.0 0.00 1.47 0.01 60 1013.5
20260906193527 93 21 2.0 3.0 0.00 1.47 0.01 61 1013.6
20260906192555 93 344 3.0 5.0 0.00 1.47 0.01 64 1013.7
20260906191525 92 336 3.0 5.0 0.00 1.47 0.01 62 1013.8
20260906190532 93 288 3.0 5.0 0.00 1.47 0.01 62 1013.9
20260906185522 92 330 3.0 4.0 0.00 1.47 0.01 62 1014.0
20260906184549 92 249 2.0 5.0 0.00 1.47 0.01 65 1014.2
20260906183519 92 334 3.0 5.0 0.00 1.47 0.01 63 1014.2
20260906182526 91 310 2.0 4.0 0.00 1.47 0.01 65 1014.3
20260906181616 91 354 4.0 6.0 0.00 1.47 0.01 64 1014.5
20260906180524 91 4 3.0 4.0 0.00 1.47 0.01 64 1014.6
20260906175532 91 358 4.0 6.0 0.00 1.47 0.01 64 1014.5
20260906174522 95 354 3.0 6.0 0.00 1.47 0.01 61 1014.7
20260906173529 93 258 2.0 3.0 0.00 1.47 0.01 61 1014.9
20260906172539 90 289 3.0 5.0 0.00 1.47 0.01 70 1015.0
20260906171527 90 224 3.0 5.0 0.00 1.47 0.01 71 1015.0
20260906170535 89 304 3.0 4.0 0.00 1.47 0.01 72 1015.1
20260906165524 89 134 2.0 3.0 0.00 1.47 0.01 72 1015.4
20260906164532 89 342 3.0 5.0 0.00 1.47 0.01 73 1015.5
20260906163522 89 122 1.0 4.0 0.00 1.47 0.01 73 1015.6
20260906162549 88 76 3.0 5.0 0.00 1.47 0.01 74 1015.6
20260906161519 88 75 2.0 5.0 0.00 1.47 0.01 75 1015.5
20260906160527 87 22 3.0 5.0 0.00 1.47 0.01 76 1015.5
20260906155535 87 209 3.0 5.0 0.00 1.47 0.01 75 1015.5
20260906154524 87 90 1.0 2.0 0.00 1.47 0.01 78 1015.4
20260906153532 86 10 2.0 3.0 0.00 1.47 0.01 79 1015.5
20260906152522 86 289 3.0 4.0 0.01 1.47 0.01 79 1015.2
20260906151530 86 51 2.0 3.0 0.01 1.47 0.01 80 1015.2
20260906150519 85 353 3.0 4.0 0.01 1.47 0.01 80 1015.2
20260906145527 85 0 2.0 4.0 0.01 1.47 0.01 82 1015.1
20260906144536 84 40 2.0 5.0 0.01 1.47 0.01 84 1015.1
20260906143525 86 4 2.0 5.0 0.01 1.47 0.01 82 1015.3
20260906142533 85 305 1.0 5.0 0.00 1.46 0.00 86 1015.2
20260906141522 82 28 1.0 4.0 0.00 1.46 0.00 91 1015.4
20260906140530 81 344 2.0 4.0 0.00 1.46 0.00 93 1015.5
20260906135520 80 344 1.0 5.0 0.00 1.46 0.00 95 1015.5
20260906134548 80 21 3.0 6.0 0.00 1.46 0.00 97 1015.6
20260906133536 79 323 3.0 6.0 0.00 1.46 0.00 98 1015.6
20260906132525 79 18 1.0 5.0 0.00 1.46 0.00 99 1015.5
20260906131555 79 338 0.0 3.0 0.00 1.46 0.00 99 1015.3
20260906130523 78 180 0.0 1.0 0.00 1.48 0.00 99 1015.3
20260906125530 78 0 0.0 3.0 0.00 1.51 0.00 99 1015.2
20260906124540 77 0.0 0.0 0.00 1.51 0.00 99 1015.1
20260906123528 76 0.0 0.0 0.00 1.51 0.00 99 1015.0
20260906122536 76 0.0 0.0 0.00 1.51 0.00 99 1014.8
20260906121525 75 0.0 0.0 0.00 1.51 0.00 99 1014.7
20260906120534 75 0.0 0.0 0.00 1.51 0.00 99 1014.5
20260906115523 75 0.0 0.0 0.00 1.51 0.00 99 1014.3
20260906114531 75 0.0 0.0 0.00 1.51 0.00 99 1014.3
20260906113541 75 0.0 0.0 0.00 1.51 0.00 99 1014.2
20260906112551 75 0.0 0.0 0.00 1.51 0.00 99 1014.3
20260906111537 75 0.0 0.0 0.00 1.51 0.00 99 1014.3
20260906110546 75 0.0 0.0 0.00 1.51 0.00 99 1014.2
20260906105534 76 0.0 0.0 0.00 1.51 0.00 99 1014.1
20260906104523 76 0.0 0.0 0.00 1.51 0.00 99 1013.9
20260906103532 76 0.0 0.0 0.00 1.51 0.00 99 1013.7
20260906102621 76 0.0 0.0 0.00 1.51 0.00 99 1013.8
20260906101529 76 0.0 0.0 0.00 1.51 0.00 99 1013.8
20260906100537 76 0.0 0.0 0.00 1.51 0.00 99 1013.7
20260906095526 76 0.0 0.0 0.00 1.51 0.00 99 1013.5
20260906094534 76 0.0 0.0 0.00 1.51 0.00 99 1013.5
20260906093524 76 0.0 0.0 0.00 1.51 0.00 99 1013.5
20260906092552 76 0.0 0.0 0.00 1.51 0.00 99 1013.6
20260906091541 76 0.0 0.0 0.00 1.51 0.00 99 1013.6
20260906090530 76 0.0 0.0 0.00 1.51 0.00 99 1013.7
20260906085519 76 0.0 0.0 0.00 1.51 0.00 99 1013.7
20260906084549 76 0.0 0.0 0.00 1.51 0.00 99 1013.7
20260906083535 76 0.0 0.0 0.00 1.51 0.00 99 1013.6
20260906082525 76 0.0 0.0 0.00 1.51 0.00 99 1013.6
20260906081533 76 0.0 0.0 0.00 1.51 0.00 99 1013.4
20260906080542 76 0.0 0.0 0.00 1.51 0.00 99 1013.5
20260906075531 76 0.0 0.0 0.00 1.51 0.00 99 1013.5
20260906074520 76 0.0 0.0 0.00 1.51 0.00 99 1013.5
20260906073527 76 0.0 0.0 0.00 1.51 0.00 99 1013.4
20260906072535 76 0.0 0.0 0.00 1.51 0.00 99 1013.6
20260906071525 76 0.0 0.0 0.00 1.51 0.00 99 1013.5
20260906070743 0 0.0 0.0 0.00 1.51 0.00 1013.6
20260906070117 77 0.0 0.0 0.00 1.51 0.00 99 1013.5
20260906065046 77 0.0 0.0 0.00 1.51 0.00 99 1013.7
20260906064034 77 0.0 0.0 0.00 1.51 0.00 99 1013.6
20260906063044 77 0.0 0.0 0.00 1.51 0.00 99 1013.5
20260906062034 77 0.0 0.0 0.00 1.51 0.00 99 1013.5
20260906061022 77 0.0 0.0 0.00 1.51 0.00 99 1013.7
20260906060030 77 0.0 0.0 0.00 1.51 0.00 99 1013.8
20260906055019 77 0.0 0.0 0.00 1.51 0.00 99 1013.6
20260906054107 77 0.0 0.0 0.00 1.51 0.00 99 1013.7
20260906053035 77 0.0 0.0 0.00 1.51 0.00 99 1013.6
20260906052025 77 0.0 0.0 0.00 1.51 0.00 99 1013.6
20260906051032 77 0.0 0.0 0.00 1.51 0.00 99 1013.6
20260906050022 77 0.0 0.0 0.00 1.51 0.00 99 1013.6
20260906045030 77 0.0 0.0 0.00 1.51 1.51 99 1013.4
20260906044019 77 0.0 0.0 0.00 1.51 1.51 99 1013.6
20260906043047 77 0.0 0.0 0.00 1.51 1.51 99 1013.7
20260906042055 77 0.0 0.0 0.00 1.51 1.51 99 1013.6
20260906041027 77 0.0 0.0 0.00 1.51 1.51 99 1013.5
20260906040033 77 0.0 0.0 0.00 1.51 1.51 99 1013.5
20260906035025 77 0.0 0.0 0.00 1.51 1.51 99 1013.5
20260906034031 77 0.0 0.0 0.00 1.51 1.51 99 1013.5
20260906033020 77 0.0 0.0 0.00 1.51 1.51 99 1013.6
20260906032028 77 0.0 0.0 0.00 1.51 1.51 99 1013.5
20260906031036 77 0.0 0.0 0.00 1.51 1.51 99 1013.6
20260906030046 77 0.0 0.0 0.00 1.51 1.51 99 1013.5
20260906025034 77 0.0 0.0 0.00 1.51 1.51 99 1013.4
20260906024023 77 0.0 0.0 0.00 1.51 1.51 99 1013.6
20260906023031 77 0.0 0.0 0.00 1.51 1.51 99 1013.4
20260906022020 77 0.0 0.0 0.00 1.51 1.51 99 1013.4
20260906021028 76 0.0 0.0 0.01 1.51 1.51 98 1013.5
20260906020036 76 0.0 0.0 0.01 1.51 1.51 98 1013.5
20260906015026 76 0.0 0.0 0.01 1.51 1.51 98 1013.4
20260906014034 76 0.0 0.0 0.01 1.51 1.51 98 1013.3
20260906013023 76 0.0 0.0 0.01 1.51 1.51 98 1013.2
20260906012031 76 0.0 0.0 0.01 1.51 1.51 98 1013.2
20260906011021 76 0.0 0.0 0.00 1.50 1.50 98 1013.3
20260906010029 76 0.0 0.0 0.00 1.50 1.50 98 1013.3
20260906005057 77 0.0 0.0 0.00 1.50 1.50 98 1013.5
20260906004026 76 0.0 0.0 0.00 1.50 1.50 98 1013.4
20260906003034 76 0.0 0.0 0.00 1.50 1.50 97 1013.3
20260906002104 76 0.0 0.0 0.00 1.50 1.50 97 1013.4
20260906001032 76 0.0 0.0 0.00 1.50 1.50 97 1013.5
20260906000022 76 0.0 0.0 0.03 1.50 1.50 97 1013.6
20260905235030 76 0.0 0.0 0.12 1.50 1.50 96 1013.3
20260905234019 75 0.0 0.0 0.39 1.50 1.50 96 1013.2
20260905233027 75 236 1.0 2.0 1.01 1.50 1.50 96 1013.2
20260905232035 75 158 1.0 2.0 1.38 1.50 1.50 96 1013.4
20260905231027 76 0.0 0.0 1.45 1.50 1.50 96 1013.7
20260905230032 75 152 3.0 4.0 1.42 1.47 1.47 95 1013.8
20260905225022 76 137 4.0 5.0 1.33 1.38 1.38 94 1014.0
20260905224029 76 139 7.0 22.0 1.06 1.11 1.11 94 1014.3
20260905223057 79 189 5.0 8.0 0.44 0.49 0.49 93 1015.3